Regional Weather Roundup
Issued by NWS

Home | Current Version | Previous Version | Text Only | Print | Product List | Glossary Off
Versions: 1 2 3 4 5 6 7 8 9 10 11 12 13 14 15 16 17 18 19 20 21 22 23 24 25 26 27 28 29 30 31 32 33 34 35 36 37 38 39 40 41 42 43 44 45 46 47 48 49 50

000
ASUS43 KMKX 022321
RWRWI

WISCONSIN REGIONAL WEATHER ROUNDUP
NATIONAL WEATHER SERVICE MILWAUKEE/SULLIVAN WI
600 PM CDT THU JUL 02 2015

NOTE: "FAIR" INDICATES FEW OR NO CLOUDS BELOW 12,000 FEET WITH NO
SIGNIFICANT WEATHER AND/OR OBSTRUCTIONS TO VISIBILITY.

WIZ001-002-006>008-014>016-023>028-030000-
NORTHWEST WISCONSIN

CITY           SKY/WX    TMP DP  RH WIND       PRES   REMARKS
SUPERIOR ARPT  SUNNY     76  58  53 SW10      29.94F
ASHLAND        SUNNY     76  58  53 SW6       29.96F
HAYWARD        SUNNY     75  51  43 SW8       29.99F
SIREN          SUNNY     76  48  37 SW7       30.00S
CUMBERLAND     SUNNY     72  50  46 S5        30.00F
RICE LAKE      SUNNY     74  51  44 S5        30.01F
CHETEK         SUNNY     74  55  51 CALM      30.00F
LADYSMITH      SUNNY     74  53  47 S7        30.02F
EAU CLAIRE     MOSUNNY   75  53  46 SE5       29.99S
MENOMONIE      SUNNY     75  53  45 SW5       30.00S
NEW RICHMOND   MOSUNNY   74  55  51 SW6       30.00S
OSCEOLA        SUNNY     76  51  42 SW5       30.01F
$$

WIZ003>005-009-010-017-018-030000-
NORTH CENTRAL WISCONSIN

CITY           SKY/WX    TMP DP  RH WIND       PRES   REMARKS
MANITOWISH WTR SUNNY     73  55  53 W3        29.99F
ARBOR VITAE    SUNNY     74  54  48 SW5       30.00F
WOODRUFF       SUNNY     74  54  48 SW5       30.00F
RHINELANDER    SUNNY     75  50  41 SW8       30.01F
EAGLE RIVER    SUNNY     73  48  40 W7        30.00F
LAND O LAKES   SUNNY     74  50  41 W5        30.01S
PHILLIPS       MOSUNNY   73  54  51 SW7       29.99F
TOMAHAWK       SUNNY     73  51  47 CALM      30.02S
MEDFORD        MOSUNNY   72  53  50 SW5       30.02S
MERRILL        SUNNY     73  49  42 CALM      30.01F
$$

WIZ029-030-035-036-043>047-030000-
CENTRAL WISCONSIN

CITY           SKY/WX    TMP DP  RH WIND       PRES   REMARKS
WAUSAU         SUNNY     74  48  39 SW6       29.99F
MOSINEE        SUNNY     72  52  49 S5        30.02
MARSHFIELD     SUNNY     73  48  41 S7        30.01F
STEVENS POINT  MOSUNNY   71  49  45 SE6       30.01F
WAUPACA        SUNNY     76  49  38 SE6       30.01S
WAUTOMA        SUNNY     73  47  39 SE6       30.02S
WISC RAPIDS    SUNNY     74  47  38 SE7       30.02S
CAMP DOUGLAS   SUNNY     72  54  52 SE5       30.00F
$$

WIZ011>013-019>022-031-037>040-048>050-030000-
NORTHEAST WISCONSIN

CITY           SKY/WX    TMP DP  RH WIND       PRES   REMARKS
ANTIGO         SUNNY     70  52  52 S5        30.03S
SHAWANO        SUNNY     74  46  36 SE5       30.01F
OCONTO         SUNNY     70  48  45 CALM      30.01F
STURGEON BAY   SUNNY     66  45  45 SE5       30.04S
GREEN BAY      SUNNY     72  44  36 E7        30.01F
MANITOWOC      SUNNY     68  47  46 MISG      30.02F
APPLETON       SUNNY     72  39  30 E7        30.02F
CLINTONVILLE   SUNNY     72  46  40 S5        30.01S
OSHKOSH        SUNNY     72  45  37 SE7       30.01F
$$

WIZ032>034-041-042-053>061-030000-
SOUTHWEST WISCONSIN

CITY           SKY/WX    TMP DP  RH WIND       PRES   REMARKS
LA CROSSE      SUNNY     76  53  44 E7        29.98F
SPARTA         SUNNY     75  46  35 E3        30.01S
VIROQUA        SUNNY     72  52  48 CALM      30.01F
BOSCOBEL       SUNNY     73  51  46 E6        29.99F
PRAIRIE DU CHI MOSUNNY   71  51  48 E5        29.98F
PLATTEVILLE    PTSUNNY   69  49  47 NE7       29.99F
$$

WIZ056-057-062-063-064-067-068-030000-
SOUTH CENTRAL WISCONSIN

CITY           SKY/WX    TMP DP  RH WIND       PRES   REMARKS
REEDSBURG      SUNNY     71  51  48 SE5       30.00S
BARABOO/DELLS  SUNNY     71  49  45 SE3       30.02S
LONE ROCK      SUNNY     73  51  46 VRB3      30.01S
MINERAL POINT  MOSUNNY   70  46  43 CALM      30.01F
MADISON        SUNNY     71  48  43 E3        30.00S
MIDDLETON      SUNNY     73  45  37 E6        30.01S
WATERTOWN      SUNNY     69  44  40 E7        30.00F
MONROE         MOSUNNY   68  50  52 NE9       29.99F
JANESVILLE     SUNNY     72  41  33 E12       29.98F
$$

WIZ051-052-058>065-066-070>072-030000-
SOUTHEAST WISCONSIN

CITY           SKY/WX    TMP DP  RH WIND       PRES   REMARKS
MILWAUKEE      MOSUNNY   61  48  62 NE13      30.02S
WAUKESHA       SUNNY     64  48  55 E6        30.02F
MILWAUKEE/TIMM SUNNY     64  46  52 NE6       30.03S
RACINE         SUNNY     61  48  62 N13       30.03S
BURLINGTON     SUNNY     65  52  60 E6        30.01S
KENOSHA        SUNNY     66  52  60 N7        30.01S
FOND DU LAC    SUNNY     71  45  39 E8        30.01F
SHEBOYGAN      SUNNY     66  46  48 E8        30.02F
WEST BEND      SUNNY     68  46  45 E7        30.02F
JUNEAU         SUNNY     70  47  44 E9        30.02S
$$

LSZ147-162-030000-
LAKE SUPERIOR

STATION/POSITION TIME  TEMP    WIND        PRES    WAVE
                       AIR SEA DIR/SP/G            HT/PER
                 (UTC) (F)     (DEG/KT/KT) (MB)    (FT/S)
W MID LAKE BUOY  2250   50 39  250/  6/ 12 1014.0F   0
DEVILS ISLAND    2300   69     230/  9/ 12 1013.6F
SAXON HARBOR     2200   78      CALM  /  5 1014.6S
$$

LMZ867-665-643>646-030000-
LAKE MICHIGAN

STATION/POSITION TIME  TEMP    WIND        PRES    WAVE
                       AIR SEA DIR/SP/G            HT/PER
                 (UTC) (F)     (DEG/KT/KT) (MB)    (FT/S)
CHAMBERS ISLAND  2200   71     320/  2/  3 1016.6F
S GREEN BAY BUOY 2230   70 70  120/  6/  8 1017.6
N MID LAKE BUOY  2250   58 52   CALM  /  2 1016.6F   0
NORTHPORT PIER   2300   61     140/  6/ 14 1016.3F
SISTER BAY       2229   69     160/  9/ 10   N/A
ALGOMA LAKESHORE 2210           80/  7/  8   N/A
KEWAUNEE LAKESHO 2300   62      CALM  /  1 1016.3F
SHEBOYGAN LAKESH 2300   59      10/  5/  6 1017.0F
PORT WASHINGTON  2200   62      40/  8/ 11 1017.6S
ATWATER BUOY     2300   58      10/  8/ 10 1017.9F
MILWAUKEE LAKESH 2300   58      30/ 10/ 11   N/A
KENOSHA   LAKESH 2300   59      30/ 15/ 18 1015.9F
$$

TC  - TEMPERATURE IN CELSIUS
VSB - VISIBILITY IN STATUTE MILES
WCI - WIND CHILL INDEX
HX  - HEAT INDEX



USA.gov is the U.S. government's official web portal to all federal, state and local government web resources and services.